National Weather Service Raw Text Product

Displaying AFOS PIL: RWRIA Received: 2018-01-12 23:00 UTC


946 
ASUS43 KDMX 122306
RWRIA 

WEATHER ROUNDUP FOR IOWA
NATIONAL WEATHER SERVICE DES MOINES IA
500 PM CST FRI JAN 12 2018

NOTE: "FAIR" INDICATES FEW OR NO CLOUDS BELOW 12,000 FEET WITH NO
SIGNIFICANT WEATHER AND/OR OBSTRUCTIONS TO VISIBILITY.

* - THESE STATIONS ARE NOT NWS STATIONS...THUS NOT UNDER NWS
QUALITY CONTROL.  THEY ALSO DO NOT REPORT WEATHER SUCH 
AS PRECIPITATION OR FOG.  

IAZ001>003-012>014-020>022-031>034-043>046-130000-
   NORTHWEST IOWA
  
CITY           SKY/WX    TMP DP  RH WIND       PRES   REMARKS
CARROLL *      CLOUDY     7  -2  66 N10       30.52R WCI  -8          
CHEROKEE *     CLOUDY     7  -4  62 N13       30.55R WCI  -9          
DENISON *      CLOUDY     9  -2  61 N13       30.54R WCI  -7          
LE MARS *      CLOUDY     9  -2  61 N12       30.57R WCI  -6          
ORANGE CITY *  CLOUDY     7  -2  66 N9        30.54R WCI  -7          
SHELDON *      CLOUDY     5  -6  61 N13       30.53R WCI -12          
SIOUX CITY     CLOUDY    10  -3  55 N12       30.57R WCI  -5          
SPENCER        CLOUDY     5  -5  63 N13       30.55R WCI -12          
STORM LAKE *   CLOUDY     5  -4  66 N15       30.51R WCI -13          
$$
 
IAZ055>058-069>071-079>083-090>094-130000-
   SOUTHWEST IOWA
  
CITY           SKY/WX    TMP DP  RH WIND       PRES   REMARKS
ATLANTIC *     CLOUDY     9  -2  61 N15       30.51R WCI  -8          
AUDUBON *      CLOUDY     9  -2  61 N10       30.51R WCI  -6          
CLARINDA *     CLOUDY    10   0  61 N14G20    30.53  WCI  -5          
COUNCIL BLFS * CLOUDY    12   1  62 N9        30.51R WCI   0          
CRESTON *      CLOUDY     7  -4  61 N15G22    30.48R WCI -11          
HARLAN  *      CLOUDY    10   0  61 N12       30.55R WCI  -4          
LAMONI         CLOUDY     9  -4  55 N15       30.44R WCI  -8          
RED OAK *      CLOUDY    10   0  61 N14       30.53R WCI  -5          
SHENANDOAH *   CLOUDY    12   0  57 N13       30.54R WCI  -3          
$$
 
IAZ047>049-059>061-072>074-084-130000-
   CENTRAL IOWA
  
CITY           SKY/WX    TMP DP  RH WIND       PRES   REMARKS
AMES           CLOUDY     5  -3  69 N17       30.52R WCI -14          
ANKENY *       CLOUDY     7  -4  61 N15       30.52R WCI -11          
BOONE *        CLOUDY     5  -4  66 N17       30.50R WCI -14          
CHARITON *     CLOUDY     7  -4  61 NW15      30.45R WCI -11          
DES MOINES     CLOUDY     7  -5  57 N14       30.51R WCI -10          
GRINNELL*      CLEAR      7  -1  69 N13       30.45R WCI  -9          
KNOXVILLE *    CLOUDY     7  -4  61 NW15      30.45R WCI -11          
MARSHALLTOWN   CLEAR      5  -3  69 N14       30.48R WCI -12          
NEWTON *       CLEAR      7  -2  66 N16       30.47R WCI -11          
PELLA *        CLOUDY     9  -2  63 N10       30.47R WCI  -6          
PERRY *          N/A      6  -4  63 N13       30.53R WCI -10          
$$
 
IAZ004>006-015-016-023>025-035-036-130000-
   NORTH CENTRAL IOWA
  
CITY           SKY/WX    TMP DP  RH WIND       PRES   REMARKS
ALGONA *       CLEAR      3 N/A N/A N9        30.52R WCI -11          
CLARION *      CLOUDY     3  -6  66 N13       30.52R WCI -14          
ESTHERVILLE    MOCLDY     3  -5  69 N17       30.54R WCI -17          
FORT DODGE *   CLOUDY     4  -5  66 N8        30.53R WCI  -9          
MASON CITY     CLEAR      1  -9  62 N14       30.52R WCI -17          
FOREST CITY *    N/A      3  -8  60 N13       30.52R WCI -14          
WEBSTER CITY * CLOUDY     3  -8  60 N15       30.51R WCI -15          
IOWA FALLS *     N/A      6  -4  65 NW16      30.51R WCI -13          
$$

IAZ007>011-017>019-026>030-037>042-050>054-066-130000-
   NORTHEAST IOWA
  
CITY           SKY/WX    TMP DP  RH WIND       PRES   REMARKS
CEDAR RAPIDS     N/A     12   1  61 N18       30.41R WCI  -6          
CHARLES CITY *   N/A      3  -8  60 NW12      30.50R WCI -13          
CLINTON *        N/A     15   8  73 N12       30.38R WCI   2          
DECORAH *        N/A      3  -4  72 N9G15     30.45R WCI -11          
DUBUQUE          N/A     12   2  64 N16       30.37R WCI  -5          
MONTICELLO *     N/A     12   0  57 N13G21    30.40R WCI  -3          
OELWEIN *        N/A      7  -2  66 N14G22    30.45R WCI -10          
WATERLOO         N/A      6  -4  63 N16       30.48R WCI -12          
$$
 
IAZ064-065-067-068-078-130000-
   EAST CENTRAL IOWA
  
CITY           SKY/WX    TMP DP  RH WIND       PRES   REMARKS
DAVENPORT        N/A     16   6  65 N15       30.39R WCI   1          
IOWA CITY        N/A     14   1  56 N14G21    30.43R WCI  -1          
MT. PLEASANT * CLEAR     12   5  73 NW13      30.40R WCI  -3          
MUSCATINE *      N/A     16   7  67 N13G20    30.42R WCI   2          
QUAD CITIES      N/A     17   7  64 NW9       30.36R WCI   6          
$$
 
IAZ062-063-075>077-085>089-095>099-130000-
   SOUTHEAST IOWA
  
CITY           SKY/WX    TMP DP  RH WIND       PRES   REMARKS
BURLINGTON     MOCLDY    15   6  67 N12       30.37R WCI   2          
FAIRFIELD *    CLEAR     12   0  57 NW15G23   30.41R WCI  -4          
FORT MADISON * PTCLDY    14   7  73 NW14      30.39R WCI  -1          
KEOKUK *       CLOUDY    14   7  73 N7G15     30.38R WCI   4          
OSKALOOSA *      N/A      9   0  66 N17       30.45R WCI -10          
OTTUMWA        CLEAR     10  -2  58 N22G28    30.42R WCI -10          
WASHINGTON *   CLEAR     10   3  72 NW18      30.42R WCI  -8          
$$

ABBREVIATIONS USED IN REMARKS
   TC - TEMPERATURES IN CELSIUS
  WCI - WIND CHILL INDEX
   HX - HEAT INDEX
  VSB - VISIBILITY  
$$

  

928 
ASUS43 KDMX 122301
RWRIA 

WEATHER ROUNDUP FOR IOWA
NATIONAL WEATHER SERVICE DES MOINES IA
500 PM CST FRI JAN 12 2018

NOTE: "FAIR" INDICATES FEW OR NO CLOUDS BELOW 12,000 FEET WITH NO
SIGNIFICANT WEATHER AND/OR OBSTRUCTIONS TO VISIBILITY.

* - THESE STATIONS ARE NOT NWS STATIONS...THUS NOT UNDER NWS
QUALITY CONTROL.  THEY ALSO DO NOT REPORT WEATHER SUCH 
AS PRECIPITATION OR FOG.  

IAZ001>003-012>014-020>022-031>034-043>046-130000-
   NORTHWEST IOWA
  
CITY           SKY/WX    TMP DP  RH WIND       PRES   REMARKS
CARROLL *      CLOUDY     7  -2  66 N10       30.52R WCI  -8          
CHEROKEE *     CLOUDY     7  -4  62 N13       30.55R WCI  -9          
DENISON *      CLOUDY     9  -2  61 N13       30.54R WCI  -7          
LE MARS *      CLOUDY     9  -2  61 N12       30.57R WCI  -6          
ORANGE CITY *  CLOUDY     7  -2  66 N9        30.54R WCI  -7          
SHELDON *      CLOUDY     5  -6  61 N13       30.53R WCI -12          
SIOUX CITY     CLOUDY    10  -3  55 N12       30.57R WCI  -5          
SPENCER        CLOUDY     5  -5  63 N13       30.55R WCI -12          
STORM LAKE *   CLOUDY     5  -4  66 N15       30.51R WCI -13          
$$
 
IAZ055>058-069>071-079>083-090>094-130000-
   SOUTHWEST IOWA
  
CITY           SKY/WX    TMP DP  RH WIND       PRES   REMARKS
ATLANTIC *     CLOUDY     9  -2  61 N15       30.51R WCI  -8          
AUDUBON *      CLOUDY     9  -2  61 N10       30.51R WCI  -6          
CLARINDA *     CLOUDY    10   0  61 N14G20    30.53  WCI  -5          
COUNCIL BLFS * CLOUDY    12   1  62 N9        30.51R WCI   0          
CRESTON *      CLOUDY     7  -4  61 N15G22    30.48R WCI -11          
HARLAN  *      CLOUDY    10   0  61 N12       30.55R WCI  -4          
LAMONI         CLOUDY     9  -4  55 N15       30.44R WCI  -8          
RED OAK *      CLOUDY    10   0  61 N14       30.53R WCI  -5          
SHENANDOAH *   CLOUDY    12   0  57 N13       30.54R WCI  -3          
$$
 
IAZ047>049-059>061-072>074-084-130000-
   CENTRAL IOWA
  
CITY           SKY/WX    TMP DP  RH WIND       PRES   REMARKS
AMES           CLOUDY     5  -3  69 N17       30.52R WCI -14          
ANKENY *       CLOUDY     7  -4  61 N15       30.52R WCI -11          
BOONE *        CLOUDY     5  -4  66 N17       30.50R WCI -14          
CHARITON *     CLOUDY     7  -4  61 NW15      30.45R WCI -11          
DES MOINES     CLOUDY     7  -5  57 N14       30.51R WCI -10          
GRINNELL*      CLEAR      7  -1  69 N13       30.45R WCI  -9          
KNOXVILLE *    CLOUDY     7  -4  61 NW15      30.45R WCI -11          
MARSHALLTOWN   CLEAR      5  -3  69 N14       30.48R WCI -12          
NEWTON *       CLEAR      7  -2  66 N16       30.47R WCI -11          
PELLA *        CLOUDY     9  -2  63 N10       30.47R WCI  -6          
PERRY *          N/A      6  -4  63 N13       30.53R WCI -10          
$$
 
IAZ004>006-015-016-023>025-035-036-130000-
   NORTH CENTRAL IOWA
  
CITY           SKY/WX    TMP DP  RH WIND       PRES   REMARKS
ALGONA *       CLEAR      3 N/A N/A N9        30.52R WCI -11          
CLARION *      CLOUDY     3  -6  66 N13       30.52R WCI -14          
ESTHERVILLE    MOCLDY     3  -5  69 N17       30.54R WCI -17          
FORT DODGE *   CLOUDY     4  -5  66 N8        30.53R WCI  -9          
MASON CITY     CLEAR      1  -9  62 N14       30.52R WCI -17          
FOREST CITY *    N/A      3  -8  60 N13       30.52R WCI -14          
WEBSTER CITY * CLOUDY     3  -8  60 N15       30.51R WCI -15          
IOWA FALLS *     N/A      6  -3  65 N20       30.49R WCI -14          
$$

IAZ007>011-017>019-026>030-037>042-050>054-066-130000-
   NORTHEAST IOWA
  
CITY           SKY/WX    TMP DP  RH WIND       PRES   REMARKS
CEDAR RAPIDS     N/A     12   1  61 N18       30.41R WCI  -6          
CHARLES CITY *   N/A      3  -8  60 NW12      30.50R WCI -13          
CLINTON *        N/A     15   8  73 N12       30.38R WCI   2          
DECORAH *        N/A      3  -4  72 N9G15     30.45R WCI -11          
DUBUQUE          N/A     12   2  64 N16       30.37R WCI  -5          
MONTICELLO *     N/A     12   0  57 N13G21    30.40R WCI  -3          
OELWEIN *        N/A      7  -2  66 N14G22    30.45R WCI -10          
WATERLOO         N/A      6  -4  63 N16       30.48R WCI -12          
$$
 
IAZ064-065-067-068-078-130000-
   EAST CENTRAL IOWA
  
CITY           SKY/WX    TMP DP  RH WIND       PRES   REMARKS
DAVENPORT        N/A     16   6  65 N15       30.39R WCI   1          
IOWA CITY        N/A     14   1  56 N14G21    30.43R WCI  -1          
MT. PLEASANT * CLEAR     12   5  73 NW13      30.40R WCI  -3          
MUSCATINE *      N/A     16   7  67 N13G20    30.42R WCI   2          
QUAD CITIES      N/A     17   7  64 NW9       30.36R WCI   6          
$$
 
IAZ062-063-075>077-085>089-095>099-130000-
   SOUTHEAST IOWA
  
CITY           SKY/WX    TMP DP  RH WIND       PRES   REMARKS
BURLINGTON     MOCLDY    15   6  67 N12       30.37R WCI   2          
FAIRFIELD *    CLEAR     12   0  57 NW15G23   30.41R WCI  -4          
FORT MADISON * PTCLDY    14   7  73 NW14      30.39R WCI  -1          
KEOKUK *       CLOUDY    14   7  73 N7G15     30.38R WCI   4          
OSKALOOSA *      N/A      9   0  66 N17       30.45R WCI -10          
OTTUMWA        CLEAR     10  -2  58 N22G28    30.42R WCI -10          
WASHINGTON *   CLEAR     10   3  72 NW18      30.42R WCI  -8          
$$

ABBREVIATIONS USED IN REMARKS
   TC - TEMPERATURES IN CELSIUS
  WCI - WIND CHILL INDEX
   HX - HEAT INDEX
  VSB - VISIBILITY  
$$

  

946 
ASUS43 KDMX 122306
RWRIA 

WEATHER ROUNDUP FOR IOWA
NATIONAL WEATHER SERVICE DES MOINES IA
500 PM CST FRI JAN 12 2018

NOTE: "FAIR" INDICATES FEW OR NO CLOUDS BELOW 12,000 FEET WITH NO
SIGNIFICANT WEATHER AND/OR OBSTRUCTIONS TO VISIBILITY.

* - THESE STATIONS ARE NOT NWS STATIONS...THUS NOT UNDER NWS
QUALITY CONTROL.  THEY ALSO DO NOT REPORT WEATHER SUCH 
AS PRECIPITATION OR FOG.  

IAZ001>003-012>014-020>022-031>034-043>046-130000-
   NORTHWEST IOWA
  
CITY           SKY/WX    TMP DP  RH WIND       PRES   REMARKS
CARROLL *      CLOUDY     7  -2  66 N10       30.52R WCI  -8          
CHEROKEE *     CLOUDY     7  -4  62 N13       30.55R WCI  -9          
DENISON *      CLOUDY     9  -2  61 N13       30.54R WCI  -7          
LE MARS *      CLOUDY     9  -2  61 N12       30.57R WCI  -6          
ORANGE CITY *  CLOUDY     7  -2  66 N9        30.54R WCI  -7          
SHELDON *      CLOUDY     5  -6  61 N13       30.53R WCI -12          
SIOUX CITY     CLOUDY    10  -3  55 N12       30.57R WCI  -5          
SPENCER        CLOUDY     5  -5  63 N13       30.55R WCI -12          
STORM LAKE *   CLOUDY     5  -4  66 N15       30.51R WCI -13          
$$
 
IAZ055>058-069>071-079>083-090>094-130000-
   SOUTHWEST IOWA
  
CITY           SKY/WX    TMP DP  RH WIND       PRES   REMARKS
ATLANTIC *     CLOUDY     9  -2  61 N15       30.51R WCI  -8          
AUDUBON *      CLOUDY     9  -2  61 N10       30.51R WCI  -6          
CLARINDA *     CLOUDY    10   0  61 N14G20    30.53  WCI  -5          
COUNCIL BLFS * CLOUDY    12   1  62 N9        30.51R WCI   0          
CRESTON *      CLOUDY     7  -4  61 N15G22    30.48R WCI -11          
HARLAN  *      CLOUDY    10   0  61 N12       30.55R WCI  -4          
LAMONI         CLOUDY     9  -4  55 N15       30.44R WCI  -8          
RED OAK *      CLOUDY    10   0  61 N14       30.53R WCI  -5          
SHENANDOAH *   CLOUDY    12   0  57 N13       30.54R WCI  -3          
$$
 
IAZ047>049-059>061-072>074-084-130000-
   CENTRAL IOWA
  
CITY           SKY/WX    TMP DP  RH WIND       PRES   REMARKS
AMES           CLOUDY     5  -3  69 N17       30.52R WCI -14          
ANKENY *       CLOUDY     7  -4  61 N15       30.52R WCI -11          
BOONE *        CLOUDY     5  -4  66 N17       30.50R WCI -14          
CHARITON *     CLOUDY     7  -4  61 NW15      30.45R WCI -11          
DES MOINES     CLOUDY     7  -5  57 N14       30.51R WCI -10          
GRINNELL*      CLEAR      7  -1  69 N13       30.45R WCI  -9          
KNOXVILLE *    CLOUDY     7  -4  61 NW15      30.45R WCI -11          
MARSHALLTOWN   CLEAR      5  -3  69 N14       30.48R WCI -12          
NEWTON *       CLEAR      7  -2  66 N16       30.47R WCI -11          
PELLA *        CLOUDY     9  -2  63 N10       30.47R WCI  -6          
PERRY *          N/A      6  -4  63 N13       30.53R WCI -10          
$$
 
IAZ004>006-015-016-023>025-035-036-130000-
   NORTH CENTRAL IOWA
  
CITY           SKY/WX    TMP DP  RH WIND       PRES   REMARKS
ALGONA *       CLEAR      3 N/A N/A N9        30.52R WCI -11          
CLARION *      CLOUDY     3  -6  66 N13       30.52R WCI -14          
ESTHERVILLE    MOCLDY     3  -5  69 N17       30.54R WCI -17          
FORT DODGE *   CLOUDY     4  -5  66 N8        30.53R WCI  -9          
MASON CITY     CLEAR      1  -9  62 N14       30.52R WCI -17          
FOREST CITY *    N/A      3  -8  60 N13       30.52R WCI -14          
WEBSTER CITY * CLOUDY     3  -8  60 N15       30.51R WCI -15          
IOWA FALLS *     N/A      6  -4  65 NW16      30.51R WCI -13          
$$

IAZ007>011-017>019-026>030-037>042-050>054-066-130000-
   NORTHEAST IOWA
  
CITY           SKY/WX    TMP DP  RH WIND       PRES   REMARKS
CEDAR RAPIDS     N/A     12   1  61 N18       30.41R WCI  -6          
CHARLES CITY *   N/A      3  -8  60 NW12      30.50R WCI -13          
CLINTON *        N/A     15   8  73 N12       30.38R WCI   2          
DECORAH *        N/A      3  -4  72 N9G15     30.45R WCI -11          
DUBUQUE          N/A     12   2  64 N16       30.37R WCI  -5          
MONTICELLO *     N/A     12   0  57 N13G21    30.40R WCI  -3          
OELWEIN *        N/A      7  -2  66 N14G22    30.45R WCI -10          
WATERLOO         N/A      6  -4  63 N16       30.48R WCI -12          
$$
 
IAZ064-065-067-068-078-130000-
   EAST CENTRAL IOWA
  
CITY           SKY/WX    TMP DP  RH WIND       PRES   REMARKS
DAVENPORT        N/A     16   6  65 N15       30.39R WCI   1          
IOWA CITY        N/A     14   1  56 N14G21    30.43R WCI  -1          
MT. PLEASANT * CLEAR     12   5  73 NW13      30.40R WCI  -3          
MUSCATINE *      N/A     16   7  67 N13G20    30.42R WCI   2          
QUAD CITIES      N/A     17   7  64 NW9       30.36R WCI   6          
$$
 
IAZ062-063-075>077-085>089-095>099-130000-
   SOUTHEAST IOWA
  
CITY           SKY/WX    TMP DP  RH WIND       PRES   REMARKS
BURLINGTON     MOCLDY    15   6  67 N12       30.37R WCI   2          
FAIRFIELD *    CLEAR     12   0  57 NW15G23   30.41R WCI  -4          
FORT MADISON * PTCLDY    14   7  73 NW14      30.39R WCI  -1          
KEOKUK *       CLOUDY    14   7  73 N7G15     30.38R WCI   4          
OSKALOOSA *      N/A      9   0  66 N17       30.45R WCI -10          
OTTUMWA        CLEAR     10  -2  58 N22G28    30.42R WCI -10          
WASHINGTON *   CLEAR     10   3  72 NW18      30.42R WCI  -8          
$$

ABBREVIATIONS USED IN REMARKS
   TC - TEMPERATURES IN CELSIUS
  WCI - WIND CHILL INDEX
   HX - HEAT INDEX
  VSB - VISIBILITY  
$$

  

928 
ASUS43 KDMX 122301
RWRIA 

WEATHER ROUNDUP FOR IOWA
NATIONAL WEATHER SERVICE DES MOINES IA
500 PM CST FRI JAN 12 2018

NOTE: "FAIR" INDICATES FEW OR NO CLOUDS BELOW 12,000 FEET WITH NO
SIGNIFICANT WEATHER AND/OR OBSTRUCTIONS TO VISIBILITY.

* - THESE STATIONS ARE NOT NWS STATIONS...THUS NOT UNDER NWS
QUALITY CONTROL.  THEY ALSO DO NOT REPORT WEATHER SUCH 
AS PRECIPITATION OR FOG.  

IAZ001>003-012>014-020>022-031>034-043>046-130000-
   NORTHWEST IOWA
  
CITY           SKY/WX    TMP DP  RH WIND       PRES   REMARKS
CARROLL *      CLOUDY     7  -2  66 N10       30.52R WCI  -8          
CHEROKEE *     CLOUDY     7  -4  62 N13       30.55R WCI  -9          
DENISON *      CLOUDY     9  -2  61 N13       30.54R WCI  -7          
LE MARS *      CLOUDY     9  -2  61 N12       30.57R WCI  -6          
ORANGE CITY *  CLOUDY     7  -2  66 N9        30.54R WCI  -7          
SHELDON *      CLOUDY     5  -6  61 N13       30.53R WCI -12          
SIOUX CITY     CLOUDY    10  -3  55 N12       30.57R WCI  -5          
SPENCER        CLOUDY     5  -5  63 N13       30.55R WCI -12          
STORM LAKE *   CLOUDY     5  -4  66 N15       30.51R WCI -13          
$$
 
IAZ055>058-069>071-079>083-090>094-130000-
   SOUTHWEST IOWA
  
CITY           SKY/WX    TMP DP  RH WIND       PRES   REMARKS
ATLANTIC *     CLOUDY     9  -2  61 N15       30.51R WCI  -8          
AUDUBON *      CLOUDY     9  -2  61 N10       30.51R WCI  -6          
CLARINDA *     CLOUDY    10   0  61 N14G20    30.53  WCI  -5          
COUNCIL BLFS * CLOUDY    12   1  62 N9        30.51R WCI   0          
CRESTON *      CLOUDY     7  -4  61 N15G22    30.48R WCI -11          
HARLAN  *      CLOUDY    10   0  61 N12       30.55R WCI  -4          
LAMONI         CLOUDY     9  -4  55 N15       30.44R WCI  -8          
RED OAK *      CLOUDY    10   0  61 N14       30.53R WCI  -5          
SHENANDOAH *   CLOUDY    12   0  57 N13       30.54R WCI  -3          
$$
 
IAZ047>049-059>061-072>074-084-130000-
   CENTRAL IOWA
  
CITY           SKY/WX    TMP DP  RH WIND       PRES   REMARKS
AMES           CLOUDY     5  -3  69 N17       30.52R WCI -14          
ANKENY *       CLOUDY     7  -4  61 N15       30.52R WCI -11          
BOONE *        CLOUDY     5  -4  66 N17       30.50R WCI -14          
CHARITON *     CLOUDY     7  -4  61 NW15      30.45R WCI -11          
DES MOINES     CLOUDY     7  -5  57 N14       30.51R WCI -10          
GRINNELL*      CLEAR      7  -1  69 N13       30.45R WCI  -9          
KNOXVILLE *    CLOUDY     7  -4  61 NW15      30.45R WCI -11          
MARSHALLTOWN   CLEAR      5  -3  69 N14       30.48R WCI -12          
NEWTON *       CLEAR      7  -2  66 N16       30.47R WCI -11          
PELLA *        CLOUDY     9  -2  63 N10       30.47R WCI  -6          
PERRY *          N/A      6  -4  63 N13       30.53R WCI -10          
$$
 
IAZ004>006-015-016-023>025-035-036-130000-
   NORTH CENTRAL IOWA
  
CITY           SKY/WX    TMP DP  RH WIND       PRES   REMARKS
ALGONA *       CLEAR      3 N/A N/A N9        30.52R WCI -11          
CLARION *      CLOUDY     3  -6  66 N13       30.52R WCI -14          
ESTHERVILLE    MOCLDY     3  -5  69 N17       30.54R WCI -17          
FORT DODGE *   CLOUDY     4  -5  66 N8        30.53R WCI  -9          
MASON CITY     CLEAR      1  -9  62 N14       30.52R WCI -17          
FOREST CITY *    N/A      3  -8  60 N13       30.52R WCI -14          
WEBSTER CITY * CLOUDY     3  -8  60 N15       30.51R WCI -15          
IOWA FALLS *     N/A      6  -3  65 N20       30.49R WCI -14          
$$

IAZ007>011-017>019-026>030-037>042-050>054-066-130000-
   NORTHEAST IOWA
  
CITY           SKY/WX    TMP DP  RH WIND       PRES   REMARKS
CEDAR RAPIDS     N/A     12   1  61 N18       30.41R WCI  -6          
CHARLES CITY *   N/A      3  -8  60 NW12      30.50R WCI -13          
CLINTON *        N/A     15   8  73 N12       30.38R WCI   2          
DECORAH *        N/A      3  -4  72 N9G15     30.45R WCI -11          
DUBUQUE          N/A     12   2  64 N16       30.37R WCI  -5          
MONTICELLO *     N/A     12   0  57 N13G21    30.40R WCI  -3          
OELWEIN *        N/A      7  -2  66 N14G22    30.45R WCI -10          
WATERLOO         N/A      6  -4  63 N16       30.48R WCI -12          
$$
 
IAZ064-065-067-068-078-130000-
   EAST CENTRAL IOWA
  
CITY           SKY/WX    TMP DP  RH WIND       PRES   REMARKS
DAVENPORT        N/A     16   6  65 N15       30.39R WCI   1          
IOWA CITY        N/A     14   1  56 N14G21    30.43R WCI  -1          
MT. PLEASANT * CLEAR     12   5  73 NW13      30.40R WCI  -3          
MUSCATINE *      N/A     16   7  67 N13G20    30.42R WCI   2          
QUAD CITIES      N/A     17   7  64 NW9       30.36R WCI   6          
$$
 
IAZ062-063-075>077-085>089-095>099-130000-
   SOUTHEAST IOWA
  
CITY           SKY/WX    TMP DP  RH WIND       PRES   REMARKS
BURLINGTON     MOCLDY    15   6  67 N12       30.37R WCI   2          
FAIRFIELD *    CLEAR     12   0  57 NW15G23   30.41R WCI  -4          
FORT MADISON * PTCLDY    14   7  73 NW14      30.39R WCI  -1          
KEOKUK *       CLOUDY    14   7  73 N7G15     30.38R WCI   4          
OSKALOOSA *      N/A      9   0  66 N17       30.45R WCI -10          
OTTUMWA        CLEAR     10  -2  58 N22G28    30.42R WCI -10          
WASHINGTON *   CLEAR     10   3  72 NW18      30.42R WCI  -8          
$$

ABBREVIATIONS USED IN REMARKS
   TC - TEMPERATURES IN CELSIUS
  WCI - WIND CHILL INDEX
   HX - HEAT INDEX
  VSB - VISIBILITY  
$$